Total_Precipitation_Accumulation
1.72 2.15 2.66 2.99 3.43 3.88 4.21 4.04 3.27 2.61 2.11 1.67 1.22 1.01 0.95 0.84 0.74 0.71 0.65 0.61 0.57 0.52 0.47 0.41 0.40 0.37 0.36 0.39 0.41 0.48 0.56 0.59 0.67 0.75 0.72 0.65 0.60 0.59 0.58 0.56 0.55 0.58 0.70
1.73 2.28 2.75 2.85 2.64 2.60 2.60 2.08 1.71 1.39 1.09 0.89 0.65 0.49 0.42 0.38 0.36 0.35 0.35 0.34 0.37 0.40 0.39 0.37 0.36 0.35 0.34 0.34 0.36 0.42 0.45 0.47 0.54 0.60 0.59 0.54 0.52 0.53 0.46 0.52 0.52 0.52 0.68
1.85 2.24 2.27 2.07 1.86 1.71 1.48 1.13 0.91 0.85 0.69 0.53 0.36 0.28 0.23 0.22 0.22 0.22 0.22 0.22 0.23 0.26 0.29 0.33 0.36 0.35 0.31 0.30 0.32 0.34 0.36 0.36 0.38 0.48 0.53 0.49 0.45 0.41 0.39 0.43 0.47 0.53 0.61
1.87 1.76 1.27 1.00 0.99 1.01 0.92 0.93 0.86 0.73 0.54 0.43 0.30 0.20 0.16 0.15 0.14 0.15 0.16 0.17 0.16 0.16 0.18 0.24 0.29 0.30 0.31 0.31 0.25 0.26 0.31 0.32 0.28 0.32 0.40 0.38 0.39 0.44 0.42 0.40 0.45 0.53 0.52
0.98 0.71 0.49 0.42 0.52 0.69 0.81 0.99 0.96 0.75 0.53 0.40 0.32 0.29 0.25 0.22 0.19 0.18 0.19 0.20 0.20 0.20 0.17 0.17 0.22 0.27 0.33 0.38 0.35 0.32 0.30 0.29 0.26 0.26 0.34 0.34 0.30 0.35 0.42 0.41 0.40 0.44 0.38
0.41 0.36 0.37 0.41 0.50 0.61 0.61 0.66 0.71 0.77 0.69 0.58 0.44 0.40 0.39 0.36 0.30 0.27 0.26 0.26 0.26 0.29 0.27 0.27 0.30 0.33 0.33 0.34 0.36 0.39 0.38 0.36 0.33 0.26 0.29 0.42 0.39 0.29 0.35 0.35 0.39 0.39 0.28
0.22 0.30 0.33 0.37 0.36 0.38 0.34 0.33 0.36 0.44 0.47 0.49 0.50 0.48 0.46 0.42 0.35 0.30 0.26 0.27 0.26 0.27 0.29 0.29 0.33 0.37 0.37 0.34 0.32 0.33 0.39 0.45 0.45 0.35 0.27 0.30 0.42 0.37 0.31 0.31 0.30 0.33 0.33
0.09 0.11 0.13 0.12 0.14 0.20 0.22 0.20 0.21 0.19 0.19 0.20 0.25 0.29 0.33 0.30 0.29 0.33 0.25 0.26 0.29 0.29 0.27 0.25 0.25 0.28 0.31 0.32 0.30 0.26 0.27 0.34 0.43 0.45 0.46 0.41 0.35 0.42 0.37 0.31 0.33 0.38 0.43
0.02 0.03 0.04 0.06 0.06 0.08 0.10 0.12 0.13 0.12 0.10 0.10 0.11 0.11 0.15 0.18 0.19 0.20 0.18 0.18 0.24 0.26 0.24 0.22 0.20 0.20 0.23 0.26 0.28 0.26 0.27 0.27 0.29 0.36 0.49 0.51 0.41 0.38 0.39 0.38 0.43 0.56 0.54
0.02 0.01 0.02 0.02 0.03 0.03 0.05 0.07 0.08 0.08 0.07 0.06 0.05 0.04 0.07 0.11 0.13 0.13 0.14 0.16 0.19 0.22 0.20 0.17 0.14 0.14 0.15 0.17 0.22 0.25 0.28 0.33 0.36 0.37 0.43 0.54 0.58 0.51 0.48 0.48 0.53 0.66 0.66
0.02 0.02 0.01 0.01 0.01 0.02 0.03 0.03 0.04 0.04 0.04 0.04 0.04 0.04 0.03 0.05 0.08 0.13 0.17 0.20 0.21 0.21 0.20 0.18 0.15 0.12 0.12 0.15 0.18 0.21 0.27 0.33 0.42 0.51 0.51 0.50 0.62 0.70 0.65 0.63 0.64 0.68 0.74
0.03 0.03 0.02 0.02 0.01 0.02 0.02 0.01 0.02 0.02 0.02 0.02 0.02 0.03 0.03 0.04 0.05 0.07 0.10 0.17 0.22 0.23 0.22 0.20 0.17 0.12 0.10 0.12 0.14 0.16 0.21 0.29 0.39 0.55 0.71 0.72 0.67 0.65 0.64 0.63 0.64 0.70 0.81
0.03 0.03 0.03 0.03 0.02 0.02 0.01 0.00 0.01 0.01 0.02 0.04 0.04 0.05 0.06 0.06 0.07 0.07 0.06 0.09 0.13 0.19 0.21 0.20 0.19 0.16 0.14 0.13 0.12 0.12 0.15 0.20 0.25 0.38 0.61 0.80 0.93 0.86 0.67 0.58 0.56 0.64 0.79
0.02 0.02 0.03 0.03 0.06 0.07 0.05 0.04 0.04 0.05 0.07 0.07 0.08 0.09 0.11 0.11 0.10 0.10 0.10 0.10 0.10 0.13 0.18 0.22 0.23 0.21 0.19 0.16 0.14 0.14 0.15 0.16 0.19 0.26 0.36 0.49 0.70 0.86 0.92 0.79 0.66 0.65 0.73
0.05 0.06 0.09 0.08 0.08 0.10 0.12 0.14 0.15 0.15 0.17 0.22 0.25 0.28 0.24 0.22 0.22 0.22 0.20 0.19 0.18 0.17 0.23 0.29 0.29 0.27 0.24 0.18 0.17 0.20 0.17 0.18 0.18 0.21 0.26 0.29 0.37 0.50 0.68 0.79 0.84 0.82 0.76
0.07 0.08 0.12 0.14 0.12 0.13 0.17 0.20 0.21 0.22 0.28 0.35 0.43 0.46 0.47 0.46 0.43 0.38 0.31 0.30 0.31 0.33 0.34 0.38 0.40 0.38 0.30 0.24 0.20 0.19 0.20 0.24 0.28 0.29 0.29 0.26 0.25 0.29 0.39 0.52 0.66 0.81 0.84
0.06 0.08 0.15 0.20 0.18 0.18 0.18 0.20 0.22 0.24 0.31 0.38 0.39 0.41 0.45 0.47 0.49 0.47 0.45 0.43 0.44 0.47 0.47 0.49 0.53 0.52 0.50 0.40 0.29 0.22 0.23 0.27 0.32 0.38 0.42 0.29 0.19 0.26 0.32 0.39 0.45 0.52 0.63
0.08 0.08 0.13 0.19 0.23 0.24 0.24 0.27 0.31 0.36 0.40 0.43 0.43 0.45 0.52 0.57 0.56 0.52 0.48 0.49 0.53 0.53 0.53 0.52 0.54 0.60 0.58 0.50 0.38 0.30 0.29 0.32 0.34 0.39 0.43 0.41 0.33 0.33 0.37 0.41 0.40 0.39 0.40
0.14 0.12 0.15 0.21 0.25 0.31 0.31 0.30 0.35 0.42 0.44 0.44 0.48 0.54 0.63 0.67 0.58 0.49 0.49 0.50 0.50 0.46 0.43 0.42 0.44 0.52 0.56 0.51 0.40 0.37 0.34 0.34 0.36 0.39 0.43 0.47 0.44 0.34 0.29 0.34 0.35 0.36 0.36
0.14 0.14 0.17 0.20 0.23 0.29 0.33 0.35 0.35 0.38 0.41 0.42 0.44 0.47 0.52 0.62 0.66 0.60 0.58 0.55 0.55 0.50 0.45 0.41 0.44 0.48 0.60 0.59 0.46 0.42 0.38 0.40 0.43 0.54 0.57 0.52 0.45 0.38 0.26 0.29 0.34 0.32 0.31
0.11 0.11 0.13 0.15 0.16 0.19 0.24 0.27 0.28 0.30 0.31 0.31 0.32 0.36 0.43 0.49 0.51 0.55 0.56 0.58 0.57 0.55 0.51 0.46 0.42 0.44 0.50 0.56 0.45 0.39 0.39 0.43 0.51 0.60 0.70 0.67 0.53 0.38 0.28 0.26 0.29 0.27 0.32
0.07 0.07 0.08 0.10 0.11 0.14 0.20 0.25 0.26 0.26 0.27 0.28 0.29 0.31 0.34 0.35 0.36 0.44 0.48 0.52 0.54 0.52 0.48 0.45 0.41 0.43 0.41 0.39 0.41 0.30 0.28 0.35 0.48 0.61 0.78 0.83 0.68 0.50 0.37 0.29 0.25 0.23 0.24
0.05 0.04 0.05 0.07 0.09 0.13 0.20 0.24 0.24 0.25 0.26 0.27 0.30 0.30 0.29 0.29 0.33 0.38 0.40 0.41 0.43 0.42 0.36 0.33 0.37 0.41 0.42 0.36 0.30 0.25 0.19 0.24 0.41 0.56 0.81 0.91 0.79 0.66 0.52 0.41 0.36 0.30 0.26
0.06 0.05 0.06 0.09 0.11 0.12 0.13 0.16 0.20 0.23 0.26 0.27 0.27 0.26 0.28 0.29 0.35 0.42 0.44 0.45 0.44 0.38 0.32 0.30 0.35 0.38 0.40 0.38 0.38 0.36 0.27 0.26 0.38 0.45 0.59 0.74 0.80 0.74 0.68 0.58 0.46 0.38 0.34
0.08 0.08 0.10 0.13 0.12 0.11 0.09 0.10 0.15 0.23 0.31 0.32 0.29 0.28 0.29 0.31 0.34 0.38 0.41 0.37 0.37 0.30 0.28 0.29 0.38 0.40 0.40 0.34 0.30 0.36 0.38 0.38 0.44 0.45 0.58 0.74 0.87 0.89 0.86 0.82 0.72 0.61 0.54
0.10 0.12 0.16 0.17 0.14 0.12 0.11 0.12 0.18 0.28 0.38 0.39 0.32 0.29 0.30 0.33 0.36 0.36 0.36 0.30 0.21 0.19 0.18 0.19 0.24 0.28 0.25 0.18 0.14 0.19 0.24 0.26 0.29 0.35 0.52 0.69 0.86 0.99 1.04 1.07 1.01 0.90 0.81